When you browse on this site, cookies collect data to enhance your experience and personalize the content and advertising you see.
Visit our Privacy Policy to learn more. By continuing to use the site, you agree to this use of cookies and data.
  • Em Portugal
  • Lista de países
  • Para 7 dias
  • Temperatura da água
  • Mapas de satélite
  • Mapa do tempo
  • Widgets de tempo
  • user-avatar
    Iniciar Sessão

    Previsão horária em Sliven

    Hoje, 16 Novembro, Sexta-feira

    Tempo Temperatura Precipitação Vento Pressão Humidade
    00:00 +3°C° 0 mm 3 m/s 738 mmHg 79%
    01:00 +3°C° 0 mm 3 m/s 738 mmHg 81%
    02:00 +2°C° 0 mm 3 m/s 738 mmHg 82%
    03:00 +2°C° 0 mm 3 m/s 738 mmHg 82%
    04:00 +1°C° 0 mm 3 m/s 738 mmHg 82%
    05:00 +1°C° 0 mm 3 m/s 738 mmHg 81%
    06:00 +1°C° 0 mm 3 m/s 738 mmHg 80%
    07:00 +1°C° 0 mm 3 m/s 739 mmHg 80%
    08:00 +1°C° 0 mm 3 m/s 739 mmHg 78%
    09:00 +1°C° 0 mm 4 m/s 739 mmHg 74%
    10:00 +3°C° 0 mm 4 m/s 739 mmHg 71%
    11:00 +4°C° 0 mm 4 m/s 740 mmHg 67%
    12:00 +3°C° 0 mm 5 m/s 740 mmHg 66%
    13:00 +2°C° 0 mm 5 m/s 740 mmHg 64%
    14:00 +2°C° 0 mm 5 m/s 740 mmHg 67%
    15:00 +1°C° 0 mm 4 m/s 740 mmHg 69%
    16:00 +1°C° 0 mm 4 m/s 740 mmHg 70%
    17:00 0°C° 0 mm 4 m/s 740 mmHg 72%
    18:00 0°C° 0 mm 4 m/s 740 mmHg 72%
    19:00 0°C° 0 mm 3 m/s 741 mmHg 73%
    20:00 0°C° 0 mm 3 m/s 741 mmHg 74%
    21:00 0°C° 0 mm 3 m/s 741 mmHg 75%
    22:00 -1°C° 0 mm 3 m/s 741 mmHg 76%
    23:00 -1°C° 0 mm 2 m/s 741 mmHg 77%

    Amanhã, 17 Novembro, Sábado

    Tempo Temperatura Precipitação Vento Pressão Humidade
    00:00 -1°C° 0 mm 2 m/s 741 mmHg 77%
    01:00 -1°C° 0 mm 2 m/s 741 mmHg 78%
    02:00 -1°C° 0 mm 2 m/s 741 mmHg 79%
    03:00 -1°C° 0 mm 2 m/s 741 mmHg 79%
    04:00 -1°C° 0 mm 2 m/s 741 mmHg 80%
    05:00 -1°C° 0 mm 2 m/s 741 mmHg 80%
    06:00 -1°C° 0 mm 2 m/s 741 mmHg 80%
    07:00 -1°C° 0 mm 2 m/s 741 mmHg 80%
    08:00 -1°C° 0 mm 2 m/s 741 mmHg 81%
    09:00 +1°C° 0 mm 2 m/s 741 mmHg 76%
    10:00 +2°C° 0 mm 2 m/s 741 mmHg 72%
    11:00 +3°C° 0 mm 3 m/s 741 mmHg 68%
    12:00 +3°C° 0 mm 3 m/s 741 mmHg 67%
    13:00 +4°C° 0 mm 3 m/s 741 mmHg 66%
    14:00 +4°C° 0 mm 3 m/s 741 mmHg 65%
    15:00 +3°C° 0 mm 3 m/s 740 mmHg 69%
    16:00 +3°C° 0 mm 3 m/s 740 mmHg 72%
    17:00 +2°C° 0 mm 3 m/s 740 mmHg 76%
    18:00 +2°C° 0 mm 3 m/s 740 mmHg 77%
    19:00 +2°C° 0 mm 3 m/s 740 mmHg 78%
    20:00 +2°C° 0 mm 3 m/s 740 mmHg 80%
    21:00 +2°C° 0 mm 3 m/s 740 mmHg 80%
    22:00 +2°C° 0 mm 3 m/s 740 mmHg 80%
    23:00 +2°C° 0 mm 3 m/s 740 mmHg 81%

    Depois de amanhã, 18 Novembro, Domingo

    Tempo Temperatura Precipitação Vento Pressão Humidade
    00:00 +2°C° 0 mm 3 m/s 740 mmHg 82%
    01:00 +2°C° 0 mm 3 m/s 740 mmHg 82%
    02:00 +2°C° 0 mm 3 m/s 740 mmHg 83%
    03:00 +2°C° 0.1 mm 3 m/s 740 mmHg 83%
    04:00 +2°C° 0.1 mm 3 m/s 739 mmHg 83%
    05:00 +3°C° 0.1 mm 2 m/s 739 mmHg 82%
    06:00 +3°C° 0 mm 2 m/s 739 mmHg 82%
    07:00 +3°C° 0 mm 2 m/s 739 mmHg 82%
    08:00 +2°C° 0 mm 3 m/s 739 mmHg 82%
    09:00 +3°C° 0 mm 3 m/s 739 mmHg 80%
    10:00 +3°C° 0 mm 3 m/s 739 mmHg 78%
    11:00 +4°C° 0 mm 3 m/s 739 mmHg 76%
    12:00 +5°C° 0 mm 2 m/s 738 mmHg 74%
    13:00 +6°C° 0 mm 2 m/s 738 mmHg 72%
    14:00 +7°C° 0 mm 2 m/s 737 mmHg 70%
    15:00 +6°C° 0 mm 2 m/s 736 mmHg 72%
    16:00 +6°C° 0 mm 2 m/s 736 mmHg 73%
    17:00 +6°C° 0 mm 2 m/s 736 mmHg 75%
    18:00 +5°C° 0 mm 2 m/s 735 mmHg 77%
    19:00 +5°C° 0 mm 2 m/s 735 mmHg 78%
    20:00 +3°C° 0 mm 3 m/s 734 mmHg 79%
    21:00 +3°C° 0.4 mm 3 m/s 734 mmHg 80%
    22:00 +3°C° 0.4 mm 3 m/s 734 mmHg 80%
    23:00 +3°C° 0.4 mm 3 m/s 733 mmHg 80%

    19 Novembro, Segunda-feira

    Tempo Temperatura Precipitação Vento Pressão Humidade
    00:00 +3°C° 1 mm 3 m/s 733 mmHg 81%
    01:00 +3°C° 1 mm 3 m/s 732 mmHg 83%
    02:00 +3°C° 1 mm 3 m/s 732 mmHg 84%
    03:00 +3°C° 1 mm 3 m/s 731 mmHg 84%
    04:00 +4°C° 1 mm 2 m/s 731 mmHg 85%
    05:00 +4°C° 1 mm 2 m/s 731 mmHg 86%
    06:00 +4°C° 0.4 mm 2 m/s 730 mmHg 86%
    07:00 +4°C° 0.4 mm 2 m/s 730 mmHg 86%
    08:00 +4°C° 0.4 mm 2 m/s 730 mmHg 86%
    09:00 +4°C° 0.2 mm 2 m/s 730 mmHg 85%
    10:00 +5°C° 0.2 mm 2 m/s 730 mmHg 83%
    11:00 +5°C° 0.2 mm 2 m/s 730 mmHg 82%
    12:00 +5°C° 0.2 mm 2 m/s 730 mmHg 83%
    13:00 +5°C° 0.2 mm 2 m/s 730 mmHg 83%
    14:00 +6°C° 0.2 mm 2 m/s 730 mmHg 84%
    15:00 +5°C° 0.3 mm 2 m/s 730 mmHg 85%
    16:00 +6°C° 0.3 mm 1 m/s 730 mmHg 86%
    17:00 +6°C° 0.3 mm 1 m/s 730 mmHg 88%
    18:00 +6°C° 0.1 mm 1 m/s 730 mmHg 88%
    19:00 +6°C° 0.1 mm 1 m/s 730 mmHg 88%
    20:00 +6°C° 0.1 mm 1 m/s 731 mmHg 89%
    21:00 +6°C° 0 mm 1 m/s 731 mmHg 90%
    22:00 +6°C° 0 mm 1 m/s 731 mmHg 90%
    23:00 +6°C° 0 mm 1 m/s 731 mmHg 91%

    20 Novembro, Terça-feira

    Tempo Temperatura Precipitação Vento Pressão Humidade
    00:00 +6°C° 0 mm 1 m/s 731 mmHg 92%
    01:00 +6°C° 0 mm 1 m/s 731 mmHg 93%
    02:00 +6°C° 0 mm 1 m/s 731 mmHg 93%
    03:00 +7°C° 0.1 mm 1 m/s 731 mmHg 94%
    04:00 +7°C° 0.1 mm 1 m/s 731 mmHg 95%
    05:00 +6°C° 0.1 mm 2 m/s 731 mmHg 95%
    06:00 +6°C° 0.6 mm 2 m/s 731 mmHg 95%
    07:00 +7°C° 0.6 mm 2 m/s 730 mmHg 95%
    08:00 +7°C° 0.6 mm 2 m/s 730 mmHg 95%
    09:00 +8°C° 0.3 mm 3 m/s 730 mmHg 93%
    10:00 +9°C° 0.3 mm 3 m/s 730 mmHg 91%
    11:00 +10°C° 0.3 mm 3 m/s 730 mmHg 90%
    12:00 +10°C° 0.2 mm 4 m/s 729 mmHg 89%
    13:00 +11°C° 0.2 mm 4 m/s 729 mmHg 88%
    14:00 +12°C° 0.2 mm 4 m/s 728 mmHg 88%
    15:00 +12°C° 0.5 mm 4 m/s 728 mmHg 89%
    16:00 +12°C° 0.5 mm 5 m/s 727 mmHg 90%
    17:00 +13°C° 0.5 mm 5 m/s 727 mmHg 91%
    18:00 +13°C° 0.5 mm 5 m/s 727 mmHg 91%
    19:00 +13°C° 0.5 mm 5 m/s 726 mmHg 90%
    20:00 +13°C° 0.5 mm 5 m/s 726 mmHg 89%
    21:00 +13°C° 0.2 mm 5 m/s 726 mmHg 89%
    22:00 +14°C° 0.2 mm 5 m/s 726 mmHg 88%
    23:00 +14°C° 0.2 mm 5 m/s 726 mmHg 88%

    21 Novembro, Quarta-feira

    Tempo Temperatura Precipitação Vento Pressão Humidade
    00:00 +14°C° 0 mm 5 m/s 726 mmHg 88%
    01:00 +14°C° 0 mm 6 m/s 725 mmHg 88%
    02:00 +14°C° 0 mm 6 m/s 725 mmHg 87%
    03:00 +14°C° 0 mm 6 m/s 725 mmHg 87%
    04:00 +14°C° 0 mm 6 m/s 725 mmHg 87%
    05:00 +14°C° 0 mm 6 m/s 724 mmHg 87%
    06:00 +14°C° 0 mm 5 m/s 724 mmHg 87%
    07:00 +14°C° 0 mm 5 m/s 724 mmHg 87%
    08:00 +14°C° 0 mm 5 m/s 724 mmHg 88%
    09:00 +15°C° 0 mm 5 m/s 724 mmHg 81%
    10:00 +16°C° 0 mm 6 m/s 725 mmHg 74%
    11:00 +18°C° 0 mm 7 m/s 725 mmHg 67%
    12:00 +19°C° 0 mm 6 m/s 724 mmHg 62%
    13:00 +20°C° 0 mm 6 m/s 724 mmHg 57%
    14:00 +20°C° 0 mm 6 m/s 724 mmHg 52%
    15:00 +19°C° 0 mm 5 m/s 724 mmHg 57%
    16:00 +17°C° 0 mm 4 m/s 724 mmHg 62%
    17:00 +16°C° 0 mm 3 m/s 724 mmHg 67%
    18:00 +15°C° 0.1 mm 2 m/s 725 mmHg 70%
    19:00 +15°C° 0.1 mm 2 m/s 725 mmHg 74%
    20:00 +14°C° 0.1 mm 2 m/s 725 mmHg 78%
    21:00 +14°C° 0.1 mm 1 m/s 726 mmHg 79%
    22:00 +14°C° 0.1 mm 1 m/s 726 mmHg 80%
    23:00 +13°C° 0.1 mm 1 m/s 727 mmHg 81%
    Mostrar mais